Simultaneous Nadir Overpasses (SNOs) Predictions

Prediction of SNOs between FY3D and NOAA-19 Satellite Orbit:

Table of predicted SNOs for the next 14.0 days since TLE Epoch: 7/9/2021
Index Date (FY3D) Time (FY3D) Lat,Lon (FY3D) SZA (FY3D ) Date (NOAA-19) Time (NOAA-19) Lat,Lon (NOAA-19) SZA (NOAA-19 ) Distance(km) Time Diff (sec)
1 07/17/2021 03:28:50 -78.40, -76.06 121.60 07/17/2021 03:27:47 -78.38, -76.10 121.59 2.24 63
2 07/17/2021 04:19:34 78.39, 91.33 58.39 07/17/2021 04:18:42 78.40, 91.27 58.43 1.69 52
3 07/17/2021 05:10:19 -78.40,-101.45 121.58 07/17/2021 05:09:47 -78.39,-101.53 121.57 2.18 32
4 07/17/2021 06:01:03 78.39, 65.94 58.41 07/17/2021 06:00:42 78.41, 65.84 58.44 3.06 21
5 07/17/2021 06:51:48 -78.40,-126.83 121.57 07/17/2021 06:51:47 -78.40,-126.96 121.56 2.88 1
6 07/17/2021 07:42:33 78.43, 40.33 58.48 07/17/2021 07:42:42 78.42, 40.41 58.46 2.21 9
7 07/17/2021 08:33:18 -78.45,-152.44 121.50 07/17/2021 08:33:47 -78.41,-152.39 121.54 3.65 29
8 07/17/2021 09:24:02 78.43, 14.95 58.49 07/17/2021 09:24:42 78.43, 14.98 58.47 0.85 40
9 07/17/2021 10:14:47 -78.45,-177.82 121.48 07/17/2021 10:15:47 -78.42,-177.81 121.53 2.52 60
10 07/17/2021 11:05:31 78.44, -10.44 58.51 07/17/2021 11:06:42 78.44, -10.45 58.49 0.51 71



Historial Predications of SNOs between FY3D and NOAA-19
